Date String (YYYY-MM-DD hh:mm:ss) UTC,Instrument flags,Ambient pressure (hPa),Sample flow (lpm),Bypass flow (lpm),Sample temperature (°C),Ambient temperature (°C),ASC tube jacket temperature (°C),LED temperature (°C),Box temperature (°C),Sample RH (%),Span deviation,Mass concentration (μg/m³),Mass concentration (μg/m³),Mass concentration (μg/m³)
DateTimeUTC,F1_M11,P_M11,Q1_M11,Q2_M11,T1_M11,T2_M11,T3_M11,T4_M11,T5_M11,U1_M11,ZSPAN_M11,X0_M11,X2_M11,X1_M11
2022-08-29 17:00:00,,0830.9,5.00,0.00,29.7,28.7,00.0,38.4,31.7,24.2,0000.0,0023.98,0007.12,0005.71
2022-08-29 17:01:00,,0830.9,4.99,0.00,29.8,28.6,00.0,38.4,31.7,24.7,0000.0,0023.36,0007.10,0005.72
2022-08-29 17:02:00,,0830.9,5.00,0.00,29.8,27.5,00.0,38.4,31.6,24.7,0000.0,0023.80,0007.16,0005.74
2022-08-29 17:03:00,,0830.9,5.00,0.00,29.7,26.6,00.0,38.4,31.5,24.6,0000.0,0022.09,0007.14,0005.76
2022-08-29 17:04:00,,0830.9,5.00,0.00,29.7,26.8,00.0,38.3,31.5,23.9,0000.0,0020.07,0007.11,0005.77
2022-08-29 17:05:00,,0830.9,5.00,0.00,29.6,27.1,00.0,38.3,31.4,24.2,0000.0,0020.15,0007.18,0005.80
2022-08-29 17:06:00,,0830.9,4.99,0.00,29.6,27.4,00.0,38.3,31.4,24.2,0000.0,0020.20,0007.17,0005.82
2022-08-29 17:07:00,,0830.9,5.01,0.00,29.6,27.7,00.0,38.3,31.4,24.6,0000.0,0021.29,0007.23,0005.85
2022-08-29 17:08:00,,0830.9,5.00,0.00,29.6,27.9,00.0,38.3,31.4,24.8,0000.0,0022.93,0007.27,0005.87
2022-08-29 17:09:00,,0830.9,5.01,0.00,29.6,28.1,00.0,38.3,31.5,24.4,0000.0,0022.38,0007.23,0005.89
2022-08-29 17:10:00,,0830.9,5.00,0.00,29.6,28.3,00.0,38.3,31.5,24.7,0000.0,0019.68,0007.23,0005.92
2022-08-29 17:11:00,,0830.9,5.01,0.00,29.6,28.4,00.0,38.3,31.5,24.6,0000.0,0019.33,0007.28,0005.93
2022-08-29 17:12:00,,0831.0,4.99,0.00,29.7,28.6,00.0,38.3,31.6,24.2,0000.0,0018.37,0007.31,0005.95
2022-08-29 17:13:00,,0831.0,4.99,0.00,29.7,28.7,00.0,38.4,31.7,24.0,0000.0,0019.46,0007.33,0005.95
2022-08-29 17:14:00,,0831.0,5.00,0.00,29.7,28.4,00.0,38.4,31.7,24.4,0000.0,0020.16,0007.35,0005.95
2022-08-29 17:15:00,,0831.0,5.00,0.00,29.7,27.2,00.0,38.4,31.5,24.3,0000.0,0020.69,0007.35,0005.94
2022-08-29 17:16:00,,0831.0,5.01,0.00,29.7,26.5,00.0,38.3,31.4,24.4,0000.0,0020.66,0007.35,0005.94
2022-08-29 17:17:00,,0831.0,5.00,0.00,29.6,26.7,00.0,38.3,31.4,24.6,0000.0,0020.46,0007.36,0005.93
2022-08-29 17:18:00,,0831.0,4.99,0.00,29.6,27.0,00.0,38.2,31.3,24.5,0000.0,0020.42,0007.32,0005.91
2022-08-29 17:19:00,,0831.1,4.99,0.00,29.5,27.3,00.0,38.2,31.3,24.4,0000.0,0019.10,0007.31,0005.90
2022-08-29 17:20:00,,0831.2,5.00,0.00,29.5,27.6,00.0,38.2,31.3,24.2,0000.0,0019.09,0007.31,0005.88
2022-08-29 17:21:00,,0831.2,5.00,0.00,29.5,27.8,00.0,38.2,31.4,23.9,0000.0,0018.47,0007.30,0005.86
2022-08-29 17:22:00,,0831.1,5.01,0.00,29.6,28.1,00.0,38.2,31.4,24.2,0000.0,0018.65,0007.23,0005.84
2022-08-29 17:23:00,,0831.1,5.01,0.00,29.6,28.2,00.0,38.3,31.5,24.6,0000.0,0019.60,0007.26,0005.83
2022-08-29 17:24:00,,0831.2,4.98,0.00,29.6,28.4,00.0,38.3,31.5,24.8,0001.2,0018.45,0007.25,0005.83
2022-08-29 17:25:00,,0831.2,5.00,0.00,29.6,28.6,00.0,38.3,31.6,24.3,0002.4,0018.13,0007.27,0005.84
2022-08-29 17:26:00,,0831.2,5.00,0.00,29.7,28.7,00.0,38.3,31.6,23.9,0001.3,0018.63,0007.28,0005.84
2022-08-29 17:27:00,,0831.2,5.00,0.00,29.7,28.6,00.0,38.3,31.7,23.8,0001.5,0019.28,0007.28,0005.85
2022-08-29 17:28:00,,0831.2,5.01,0.00,29.7,27.6,00.0,38.3,31.5,23.4,0000.4,0020.00,0007.29,0005.83
2022-08-29 17:29:00,,0831.2,5.00,0.00,29.6,26.6,00.0,38.3,31.3,23.3,0001.9,0018.97,0007.20,0005.82
2022-08-29 17:30:00,,0831.2,5.00,0.00,29.6,26.6,00.0,38.2,31.3,23.7,0000.0,0018.92,0007.18,0005.79
2022-08-29 17:31:00,,0831.1,5.00,0.00,29.5,26.8,00.0,38.2,31.2,23.6,0000.0,0018.96,0007.19,0005.80
2022-08-29 17:32:00,,0831.2,5.01,0.00,29.5,27.2,00.0,38.2,31.2,23.8,0000.0,0019.73,0007.22,0005.80
2022-08-29 17:33:00,,0831.2,5.00,0.00,29.5,27.5,00.0,38.2,31.3,24.8,0000.0,0021.55,0007.31,0005.80
2022-08-29 17:34:00,,0831.2,5.00,0.00,29.5,27.7,00.0,38.2,31.3,25.8,0000.0,0021.84,0007.39,0005.82
2022-08-29 17:35:00,,0831.2,5.02,0.00,29.5,28.0,00.0,38.2,31.4,25.2,0000.0,0021.95,0007.41,0005.84
2022-08-29 17:36:00,,0831.2,5.01,0.00,29.5,28.2,00.0,38.2,31.4,25.6,0000.0,0022.28,0007.40,0005.85
2022-08-29 17:37:00,,0831.2,4.99,0.00,29.6,28.3,00.0,38.2,31.5,25.8,0000.0,0021.89,0007.40,0005.87
2022-08-29 17:38:00,,0831.2,4.99,0.00,29.6,28.5,00.0,38.3,31.5,25.5,0000.0,0021.83,0007.48,0005.89
2022-08-29 17:39:00,,0831.1,5.00,0.00,29.6,28.6,00.0,38.3,31.6,25.2,0000.0,0021.39,0007.51,0005.94
2022-08-29 17:40:00,,0831.1,4.99,0.00,29.7,27.8,00.0,38.3,31.5,25.4,0000.0,0021.43,0007.60,0005.98
2022-08-29 17:41:00,,0831.0,5.01,0.00,29.6,26.6,00.0,38.3,31.4,25.2,0000.0,0021.69,0007.73,0006.05
2022-08-29 17:42:00,,0831.0,5.00,0.00,29.6,26.5,00.0,38.2,31.3,25.0,-000.0,0021.67,0007.87,0006.15
2022-08-29 17:43:00,,0831.2,5.00,0.00,29.5,26.7,00.0,38.2,31.3,25.2,-000.2,0022.24,0007.95,0006.21
2022-08-29 17:44:00,,0831.1,5.00,0.00,29.5,27.1,00.0,38.2,31.2,25.2,-000.1,0020.44,0007.99,0006.29
2022-08-29 17:45:00,,0831.1,5.00,0.00,29.4,27.4,00.0,38.2,31.2,25.2,0000.2,0019.83,0008.01,0006.38
2022-08-29 17:46:00,,0831.1,5.00,0.00,29.4,27.6,00.0,38.2,31.3,25.3,0000.6,0020.72,0008.08,0006.43
2022-08-29 17:47:00,,0831.1,5.00,0.00,29.5,27.9,00.0,38.2,31.3,25.1,0000.7,0020.48,0008.10,0006.46
2022-08-29 17:48:00,,0831.1,5.01,0.00,29.5,28.1,00.0,38.2,31.4,24.7,0000.9,0020.58,0008.15,0006.49
2022-08-29 17:49:00,,0831.2,5.01,0.00,29.5,28.3,00.0,38.2,31.4,24.3,0000.7,0020.02,0008.18,0006.51
2022-08-29 17:50:00,,0831.2,4.98,0.00,29.6,28.5,00.0,38.2,31.5,24.1,0000.5,0020.00,0008.19,0006.52
2022-08-29 17:51:00,,0831.2,5.00,0.00,29.6,28.6,00.0,38.2,31.5,24.2,0000.3,0020.39,0008.18,0006.52
2022-08-29 17:52:00,,0831.2,5.00,0.00,29.6,28.6,00.0,38.2,31.6,24.4,0000.4,0021.00,0008.18,0006.52
2022-08-29 17:53:00,,0831.1,5.00,0.00,29.7,27.6,00.0,38.2,31.5,24.8,0000.8,0020.80,0008.08,0006.47
2022-08-29 17:54:00,,0831.1,4.99,0.00,29.6,26.6,00.0,38.2,31.4,24.5,0001.1,0020.12,0008.03,0006.44
2022-08-29 17:55:00,,0831.1,5.00,0.00,29.6,26.6,00.0,38.2,31.4,24.0,0001.6,0020.04,0007.98,0006.40
2022-08-29 17:56:00,,0831.2,5.00,0.00,29.5,26.8,00.0,38.1,31.3,24.1,0001.6,0019.26,0007.92,0006.34
2022-08-29 17:57:00,,0831.2,5.00,0.00,29.5,27.1,00.0,38.1,31.2,23.9,0001.2,0018.48,0007.88,0006.30
2022-08-29 17:58:00,,0831.2,4.99,0.00,29.4,27.4,00.0,38.1,31.3,23.7,0000.8,0019.20,0007.94,0006.29
2022-08-29 17:59:00,,0831.1,4.99,0.00,29.4,27.7,00.0,38.1,31.3,23.6,0000.7,0019.90,0007.92,0006.27
